| time (UTC) | temp F | wind direction | speed MPH | gust MPH | rain 1hr in | rain 24hr in | rain mn in | humidity % | barometer mb |
| 20260503205640 | 47 | 306 | 3.0 | 5.0 | 0.00 | 0.00 | 0.00 | 49 | 1009.1 |
| 20260503205144 | 47 | 345 | 6.0 | 10.0 | 0.00 | 0.00 | 0.00 | 49 | 1009.4 |
| 20260503204638 | 48 | 328 | 4.0 | 8.0 | 0.00 | 0.00 | 0.00 | 51 | 1009.4 |
| 20260503204139 | 47 | 331 | 8.0 | 20.0 | 0.00 | 0.00 | 0.00 | 49 | 1009.4 |
| 20260503203639 | 47 | 322 | 2.0 | 3.0 | 0.00 | 0.00 | 0.00 | 49 | 1009.4 |
| 20260503203138 | 47 | 349 | 4.0 | 7.0 | 0.00 | 0.00 | 0.00 | 49 | 1009.1 |
| 20260503202639 | 47 | 5 | 5.0 | 7.0 | 0.00 | 0.00 | 0.00 | 49 | 1009.1 |
| 20260503202136 | 47 | 311 | 7.0 | 11.0 | 0.00 | 0.00 | 0.00 | 50 | 1009.1 |
| 20260503201638 | 47 | 327 | 5.0 | 7.0 | 0.00 | 0.00 | 0.00 | 50 | 1009.1 |
| 20260503201138 | 47 | 326 | 6.0 | 8.0 | 0.00 | 0.00 | 0.00 | 50 | 1009.3 |
| 20260503200636 | 47 | 343 | 3.0 | 6.0 | 0.00 | 0.00 | 0.00 | 51 | 1009.4 |
| 20260503200137 | 46 | 355 | 4.0 | 11.0 | 0.00 | 0.00 | 0.00 | 50 | 1009.3 |
| 20260503195736 | 46 | 326 | 5.0 | 8.0 | 0.00 | 0.00 | 0.00 | 50 | 1009.4 |
| 20260503195136 | 47 | 355 | 5.0 | 10.0 | 0.00 | 0.00 | 0.00 | 49 | 1009.1 |
| 20260503194637 | 47 | 322 | 5.0 | 7.0 | 0.00 | 0.00 | 0.00 | 50 | 1009.4 |
| 20260503194136 | 48 | 293 | 5.0 | 8.0 | 0.00 | 0.00 | 0.00 | 48 | 1009.3 |
| 20260503193635 | 47 | 333 | 3.0 | 3.0 | 0.00 | 0.00 | 0.00 | 50 | 1009.4 |
| 20260503193134 | 47 | 336 | 7.0 | 15.0 | 0.00 | 0.00 | 0.00 | 49 | 1009.4 |
| 20260503192634 | 47 | 338 | 2.0 | 7.0 | 0.00 | 0.00 | 0.00 | 49 | 1009.4 |
| 20260503192136 | 47 | 14 | 7.0 | 10.0 | 0.00 | 0.00 | 0.00 | 49 | 1009.4 |
| 20260503191133 | 47 | 353 | 5.0 | 10.0 | 0.00 | 0.00 | 0.00 | 48 | 1009.4 |
| 20260503190735 | 47 | 329 | 5.0 | 7.0 | 0.00 | 0.00 | 0.00 | 49 | 1009.4 |
| 20260503185633 | 47 | 329 | 6.0 | 9.0 | 0.00 | 0.00 | 0.00 | 48 | 1009.4 |
| 20260503185132 | 47 | 271 | 6.0 | 9.0 | 0.00 | 0.00 | 0.00 | 49 | 1009.6 |
| 20260503184631 | 46 | 308 | 5.0 | 8.0 | 0.00 | 0.00 | 0.00 | 50 | 1009.4 |
| 20260503184130 | 46 | 331 | 5.0 | 8.0 | 0.00 | 0.00 | 0.00 | 51 | 1009.4 |
| 20260503183632 | 46 | 349 | 3.0 | 6.0 | 0.00 | 0.00 | 0.00 | 51 | 1009.4 |
| 20260503183131 | 47 | 2 | 5.0 | 7.0 | 0.00 | 0.00 | 0.00 | 52 | 1009.4 |
| 20260503182130 | 48 | 3 | 7.0 | 10.0 | 0.00 | 0.00 | 0.00 | 52 | 1009.4 |
| 20260503181630 | 47 | 296 | 5.0 | 7.0 | 0.00 | 0.00 | 0.00 | 52 | 1009.4 |
| 20260503181130 | 46 | 337 | 5.0 | 8.0 | 0.00 | 0.00 | 0.00 | 52 | 1009.3 |
| 20260503180128 | 47 | 344 | 6.0 | 9.0 | 0.00 | 0.00 | 0.00 | 52 | 1009.1 |
| 20260503175627 | 48 | 284 | 7.0 | 10.0 | 0.00 | 0.00 | 0.00 | 51 | 1009.1 |
| 20260503175128 | 49 | 318 | 2.0 | 6.0 | 0.00 | 0.00 | 0.00 | 51 | 1008.9 |
| 20260503174627 | 48 | 280 | 9.0 | 16.0 | 0.00 | 0.00 | 0.00 | 50 | 1009.1 |
| 20260503174126 | 49 | 344 | 5.0 | 8.0 | 0.00 | 0.00 | 0.00 | 51 | 1009.1 |
| 20260503173626 | 47 | 7 | 9.0 | 13.0 | 0.00 | 0.00 | 0.00 | 50 | 1009.1 |
| 20260503172628 | 48 | 335 | 7.0 | 10.0 | 0.00 | 0.00 | 0.00 | 48 | 1009.1 |
| 20260503172125 | 47 | 321 | 6.0 | 11.0 | 0.00 | 0.00 | 0.00 | 49 | 1008.9 |
| 20260503171730 | 48 | 324 | 2.0 | 3.0 | 0.00 | 0.00 | 0.00 | 48 | 1008.7 |
| 20260503171126 | 49 | 308 | 8.0 | 13.0 | 0.00 | 0.00 | 0.00 | 46 | 1008.7 |
| 20260503170625 | 47 | 357 | 3.0 | 6.0 | 0.00 | 0.00 | 0.00 | 49 | 1008.9 |
| 20260503170124 | 46 | 321 | 7.0 | 11.0 | 0.00 | 0.00 | 0.00 | 49 | 1008.7 |
| 20260503160120 | 47 | 298 | 8.0 | 13.0 | 0.00 | 0.00 | 0.00 | 54 | 1008.9 |
| 20260503150617 | 47 | 319 | 5.0 | 9.0 | 0.00 | 0.00 | 0.00 | 53 | 1009.4 |
| 20260503150146 | 46 | 307 | 7.0 | 10.0 | 0.00 | 0.00 | 0.00 | 55 | 1009.1 |
| 20260503140142 | 45 | 324 | 4.0 | 7.0 | 0.00 | 0.00 | 0.00 | 66 | 1009.4 |
| 20260503131138 | 43 | 339 | 4.0 | 7.0 | 0.00 | 0.00 | 0.00 | 73 | 1009.8 |
| 20260503130638 | 43 | 339 | 2.0 | 3.0 | 0.00 | 0.00 | 0.00 | 73 | 1009.8 |
| 20260503130137 | 42 | 331 | 4.0 | 6.0 | 0.00 | 0.00 | 0.00 | 74 | 1009.8 |
| 20260503120133 | 40 | 317 | 5.0 | 8.0 | 0.00 | 0.00 | 0.00 | 82 | 1009.8 |
| 20260503110630 | 39 | 310 | 2.0 | 3.0 | 0.00 | 0.00 | 0.00 | 87 | 1009.4 |
| 20260503110131 | 39 | 320 | 2.0 | 2.0 | 0.00 | 0.00 | 0.00 | 87 | 1009.4 |
| 20260503100127 | 37 | 327 | 2.0 | 2.0 | 0.00 | 0.00 | 0.00 | 89 | 1009.4 |
| 20260503081621 | 36 | 333 | 1.0 | 1.0 | 0.00 | 0.00 | 0.00 | 94 | 1010.1 |
| 20260503081121 | 36 | 329 | 1.0 | 1.0 | 0.00 | 0.00 | 0.00 | 93 | 1009.8 |
| 20260503080618 | 36 | 331 | 1.0 | 1.0 | 0.00 | 0.00 | 0.00 | 93 | 1010.1 |
| 20260503072649 | 36 | 332 | 1.0 | 1.0 | 0.00 | 0.00 | 0.00 | 95 | 1010.3 |
| 20260503072145 | 36 | 0.0 | 0.0 | 0.00 | 0.00 | 0.00 | 95 | 1010.5 | |
| 20260503071648 | 36 | 0.0 | 0.0 | 0.00 | 0.00 | 0.00 | 95 | 1010.5 | |
| 20260503071147 | 36 | 335 | 1.0 | 2.0 | 0.00 | 0.00 | 0.00 | 95 | 1010.7 |
| 20260503070644 | 36 | 326 | 1.0 | 1.0 | 0.00 | 0.00 | 0.00 | 94 | 1010.5 |
| 20260503070143 | 36 | 336 | 0.0 | 1.0 | 0.00 | 0.00 | 0.00 | 94 | 1010.5 |
| 20260503060143 | 37 | 0.0 | 0.0 | 0.00 | 0.00 | 0.00 | 95 | 1011.2 | |
| 20260503054639 | 36 | 327 | 1.0 | 1.0 | 0.00 | 0.00 | 0.00 | 96 | 1011.6 |
| 20260503054142 | 37 | 330 | 1.0 | 1.0 | 0.00 | 0.00 | 0.00 | 96 | 1011.6 |
| 20260503053741 | 36 | 328 | 1.0 | 1.0 | 0.00 | 0.00 | 0.00 | 97 | 1011.6 |
| 20260503053138 | 36 | 326 | 1.0 | 2.0 | 0.00 | 0.00 | 0.00 | 97 | 1011.6 |
| 20260503052638 | 36 | 327 | 1.0 | 1.0 | 0.00 | 0.00 | 0.00 | 97 | 1011.6 |
| 20260503052137 | 36 | 335 | 1.0 | 2.0 | 0.00 | 0.00 | 0.00 | 98 | 1011.6 |
| 20260503051138 | 36 | 335 | 1.0 | 1.0 | 0.00 | 0.00 | 0.00 | 98 | 1011.6 |
| 20260503050636 | 36 | 326 | 1.0 | 2.0 | 0.00 | 0.00 | 0.00 | 98 | 1011.9 |
| 20260503050136 | 36 | 331 | 1.0 | 1.0 | 0.00 | 0.00 | 0.00 | 99 | 1011.9 |
| 20260503045638 | 36 | 333 | 1.0 | 1.0 | 0.00 | 0.00 | 0.00 | 99 | 1011.9 |
| 20260503045239 | 35 | 332 | 2.0 | 2.0 | 0.00 | 0.00 | 0.00 | 99 | 1011.9 |
| 20260503044635 | 35 | 327 | 1.0 | 2.0 | 0.00 | 0.00 | 0.00 | 99 | 1011.9 |
| 20260503044134 | 35 | 326 | 2.0 | 2.0 | 0.00 | 0.00 | 0.00 | 99 | 1011.9 |
| 20260503043638 | 35 | 328 | 2.0 | 2.0 | 0.00 | 0.00 | 0.00 | 99 | 1011.9 |
| 20260503043235 | 35 | 323 | 2.0 | 2.0 | 0.00 | 0.00 | 0.00 | 99 | 1012.3 |
| 20260503042638 | 35 | 324 | 2.0 | 2.0 | 0.00 | 0.00 | 0.00 | 99 | 1012.3 |
| 20260503042133 | 35 | 324 | 2.0 | 2.0 | 0.00 | 0.00 | 0.00 | 99 | 1012.3 |
| 20260503041634 | 35 | 323 | 2.0 | 2.0 | 0.00 | 0.00 | 0.00 | 99 | 1012.3 |
| 20260503041133 | 35 | 328 | 1.0 | 2.0 | 0.00 | 0.00 | 0.00 | 99 | 1012.3 |
| 20260503040633 | 35 | 328 | 1.0 | 2.0 | 0.00 | 0.00 | 0.00 | 99 | 1012.6 |
| 20260503040132 | 35 | 328 | 2.0 | 2.0 | 0.00 | 0.00 | 0.00 | 99 | 1012.6 |
| 20260503035633 | 35 | 328 | 2.0 | 2.0 | 0.00 | 0.00 | 0.17 | 99 | 1012.6 |
| 20260503035132 | 35 | 327 | 1.0 | 2.0 | 0.00 | 0.00 | 0.17 | 98 | 1012.6 |
| 20260503034631 | 36 | 328 | 1.0 | 1.0 | 0.00 | 0.00 | 0.17 | 98 | 1012.6 |
| 20260503034130 | 36 | 325 | 2.0 | 2.0 | 0.00 | 0.00 | 0.17 | 98 | 1013.0 |
| 20260503033630 | 36 | 322 | 2.0 | 2.0 | 0.00 | 0.00 | 0.17 | 97 | 1012.6 |
| 20260503033131 | 36 | 0.0 | 0.0 | 0.00 | 0.00 | 0.17 | 97 | 1012.6 | |
| 20260503032632 | 37 | 332 | 1.0 | 1.0 | 0.00 | 0.00 | 0.17 | 97 | 1012.6 |
| 20260503032131 | 37 | 337 | 1.0 | 1.0 | 0.00 | 0.00 | 0.17 | 97 | 1012.6 |
| 20260503031728 | 37 | 327 | 1.0 | 1.0 | 0.00 | 0.00 | 0.17 | 96 | 1012.6 |
| 20260503031230 | 37 | 328 | 2.0 | 2.0 | 0.00 | 0.00 | 0.17 | 96 | 1012.6 |
| 20260503030128 | 37 | 329 | 1.0 | 1.0 | 0.00 | 0.00 | 0.17 | 95 | 1013.0 |
| 20260503025629 | 37 | 326 | 1.0 | 1.0 | 0.00 | 0.00 | 0.17 | 95 | 1012.8 |
| 20260503025132 | 38 | 335 | 1.0 | 1.0 | 0.00 | 0.00 | 0.17 | 95 | 1012.6 |
| 20260503024628 | 37 | 333 | 2.0 | 2.0 | 0.00 | 0.00 | 0.17 | 95 | 1012.8 |
| 20260503024127 | 38 | 323 | 2.0 | 2.0 | 0.00 | 0.00 | 0.17 | 94 | 1013.0 |
| 20260503023628 | 38 | 333 | 1.0 | 1.0 | 0.00 | 0.00 | 0.17 | 94 | 1013.0 |
| 20260503023127 | 38 | 333 | 1.0 | 1.0 | 0.00 | 0.00 | 0.17 | 93 | 1013.0 |
| 20260503022626 | 38 | 331 | 1.0 | 1.0 | 0.00 | 0.00 | 0.17 | 93 | 1013.1 |
| 20260503022125 | 38 | 326 | 2.0 | 2.0 | 0.00 | 0.00 | 0.17 | 92 | 1013.0 |
| 20260503021624 | 39 | 332 | 2.0 | 2.0 | 0.00 | 0.00 | 0.17 | 92 | 1013.0 |
| 20260503021125 | 39 | 326 | 1.0 | 2.0 | 0.00 | 0.00 | 0.17 | 91 | 1013.1 |
| 20260503020624 | 39 | 327 | 1.0 | 1.0 | 0.00 | 0.00 | 0.17 | 90 | 1013.3 |
| 20260503020123 | 39 | 327 | 1.0 | 1.0 | 0.00 | 0.00 | 0.17 | 90 | 1013.3 |
| 20260503015625 | 39 | 329 | 1.0 | 1.0 | 0.00 | 0.00 | 0.17 | 88 | 1013.3 |
| 20260503015124 | 39 | 333 | 1.0 | 1.0 | 0.00 | 0.00 | 0.17 | 87 | 1013.1 |
| 20260503014623 | 40 | 0.0 | 0.0 | 0.00 | 0.00 | 0.17 | 86 | 1013.3 | |
| 20260503014122 | 40 | 335 | 0.0 | 1.0 | 0.00 | 0.00 | 0.17 | 85 | 1013.1 |
| 20260503013623 | 40 | 0.0 | 0.0 | 0.00 | 0.00 | 0.17 | 84 | 1013.0 | |
| 20260503013123 | 41 | 0.0 | 0.0 | 0.00 | 0.00 | 0.17 | 82 | 1013.0 | |
| 20260503012623 | 41 | 348 | 2.0 | 3.0 | 0.00 | 0.00 | 0.17 | 82 | 1013.0 |
| 20260503012121 | 41 | 345 | 2.0 | 2.0 | 0.00 | 0.00 | 0.17 | 82 | 1012.8 |
| 20260503011620 | 41 | 339 | 2.0 | 2.0 | 0.00 | 0.00 | 0.17 | 80 | 1013.0 |
| 20260503011121 | 41 | 323 | 0.0 | 2.0 | 0.00 | 0.00 | 0.17 | 79 | 1013.0 |
| 20260503010119 | 41 | 329 | 1.0 | 1.0 | 0.00 | 0.00 | 0.17 | 75 | 1013.0 |
| 20260503005123 | 43 | 329 | 1.0 | 1.0 | 0.00 | 0.00 | 0.17 | 67 | 1012.8 |
| 20260503004621 | 43 | 335 | 1.0 | 2.0 | 0.00 | 0.00 | 0.17 | 67 | 1012.6 |
| 20260503004120 | 44 | 341 | 1.0 | 2.0 | 0.00 | 0.00 | 0.17 | 64 | 1012.6 |
| 20260503003119 | 44 | 329 | 1.0 | 1.0 | 0.00 | 0.00 | 0.17 | 64 | 1012.6 |
| 20260503002618 | 44 | 0.0 | 0.0 | 0.00 | 0.00 | 0.17 | 64 | 1012.6 | |
| 20260503002117 | 45 | 310 | 2.0 | 3.0 | 0.00 | 0.00 | 0.17 | 61 | 1012.6 |
| 20260503001618 | 45 | 324 | 1.0 | 2.0 | 0.00 | 0.00 | 0.17 | 62 | 1012.6 |
| 20260503001118 | 46 | 303 | 3.0 | 3.0 | 0.00 | 0.00 | 0.17 | 58 | 1012.3 |
| 20260503000616 | 46 | 343 | 4.0 | 7.0 | 0.00 | 0.00 | 0.17 | 58 | 1012.3 |
| 20260503000116 | 46 | 331 | 2.0 | 3.0 | 0.00 | 0.00 | 0.17 | 57 | 1012.3 |
| 20260502235617 | 47 | 324 | 1.0 | 1.0 | 0.00 | 0.00 | 0.17 | 56 | 1012.3 |
| 20260502235314 | 47 | 345 | 4.0 | 6.0 | 0.00 | 0.00 | 0.17 | 55 | 1011.9 |
| 20260502234145 | 48 | 322 | 2.0 | 5.0 | 0.00 | 0.00 | 0.17 | 54 | 1011.9 |
| 20260502233646 | 48 | 330 | 2.0 | 3.0 | 0.00 | 0.00 | 0.17 | 53 | 1011.9 |
| 20260502233145 | 49 | 310 | 2.0 | 3.0 | 0.00 | 0.00 | 0.17 | 54 | 1011.7 |
| 20260502232644 | 49 | 325 | 1.0 | 1.0 | 0.00 | 0.00 | 0.17 | 51 | 1011.9 |
| 20260502232143 | 49 | 344 | 1.0 | 5.0 | 0.00 | 0.00 | 0.17 | 51 | 1011.9 |
| 20260502231643 | 49 | 299 | 2.0 | 5.0 | 0.00 | 0.00 | 0.17 | 50 | 1011.6 |
| 20260502231144 | 50 | 312 | 3.0 | 6.0 | 0.00 | 0.00 | 0.17 | 49 | 1011.6 |
| 20260502230142 | 49 | 318 | 5.0 | 7.0 | 0.00 | 0.00 | 0.17 | 53 | 1011.6 |
| 20260502225642 | 50 | 328 | 1.0 | 1.0 | 0.00 | 0.00 | 0.17 | 59 | 1011.6 |
| 20260502225143 | 49 | 330 | 2.0 | 2.0 | 0.00 | 0.00 | 0.17 | 57 | 1011.6 |
| 20260502224641 | 49 | 338 | 1.0 | 2.0 | 0.00 | 0.00 | 0.17 | 55 | 1011.6 |
| 20260502223141 | 49 | 325 | 3.0 | 7.0 | 0.00 | 0.00 | 0.17 | 58 | 1011.6 |
| 20260502222642 | 49 | 323 | 2.0 | 3.0 | 0.00 | 0.00 | 0.17 | 59 | 1011.6 |
| 20260502222142 | 49 | 331 | 3.0 | 6.0 | 0.00 | 0.00 | 0.17 | 61 | 1011.6 |
| 20260502221639 | 50 | 336 | 0.0 | 1.0 | 0.00 | 0.00 | 0.17 | 69 | 1011.6 |
| 20260502221138 | 50 | 333 | 2.0 | 2.0 | 0.00 | 0.00 | 0.17 | 60 | 1011.6 |
| 20260502220739 | 50 | 334 | 2.0 | 3.0 | 0.00 | 0.00 | 0.17 | 58 | 1011.4 |
| 20260502220139 | 50 | 308 | 3.0 | 6.0 | 0.00 | 0.00 | 0.17 | 60 | 1011.6 |
| 20260502215638 | 50 | 337 | 3.0 | 3.0 | 0.00 | 0.00 | 0.17 | 60 | 1011.6 |
| 20260502215139 | 50 | 314 | 1.0 | 2.0 | 0.00 | 0.00 | 0.17 | 61 | 1011.4 |
| 20260502214640 | 50 | 319 | 2.0 | 3.0 | 0.00 | 0.00 | 0.17 | 60 | 1011.6 |
| 20260502214137 | 50 | 338 | 3.0 | 5.0 | 0.00 | 0.00 | 0.17 | 60 | 1011.2 |
| 20260502213636 | 50 | 334 | 2.0 | 3.0 | 0.00 | 0.00 | 0.17 | 60 | 1011.2 |
| 20260502213135 | 51 | 334 | 2.0 | 5.0 | 0.00 | 0.00 | 0.17 | 62 | 1011.2 |
| 20260502212637 | 51 | 299 | 3.0 | 5.0 | 0.00 | 0.00 | 0.17 | 62 | 1011.2 |
| 20260502212136 | 51 | 337 | 1.0 | 1.0 | 0.00 | 0.00 | 0.17 | 63 | 1011.2 |
| 20260502211735 | 50 | 324 | 2.0 | 3.0 | 0.00 | 0.00 | 0.17 | 61 | 1011.4 |
| 20260502211236 | 51 | 325 | 3.0 | 3.0 | 0.00 | 0.00 | 0.17 | 64 | 1011.2 |
| 20260502210635 | 51 | 330 | 2.0 | 2.0 | 0.00 | 0.00 | 0.17 | 64 | 1011.2 |
| 20260502210135 | 51 | 336 | 0.0 | 1.0 | 0.00 | 0.00 | 0.17 | 62 | 1011.2 |